Time,TemperatureF,DewpointF,PressureIn,WindDirection,WindDirectionDegrees,WindSpeedMPH,WindSpeedGustMPH,Humidity,HourlyPrecipIn,Conditions,Clouds,dailyrainin,SoftwareType,DateUTC
2013-06-04 00:11:00,41.6,39.0,32.33,NE,36,6.0,8.0,89,0.00,,,0.00,weatherlink.com 1.10,2013-06-04 06:11:00,
2013-06-04 00:27:00,41.2,39.0,32.34,East,86,6.0,10.0,91,0.00,,,0.00,weatherlink.com 1.10,2013-06-04 06:27:00,
2013-06-04 00:41:00,41.1,39.0,32.34,ENE,58,8.0,10.0,92,0.00,,,0.00,weatherlink.com 1.10,2013-06-04 06:41:00,
2013-06-04 00:57:00,41.0,39.0,32.34,ENE,78,4.0,11.0,94,0.00,,,0.00,weatherlink.com 1.10,2013-06-04 06:57:00,
2013-06-04 01:12:00,40.6,39.0,32.34,East,82,7.0,9.0,94,0.00,,,0.00,weatherlink.com 1.10,2013-06-04 07:12:00,
2013-06-04 01:27:00,40.0,39.0,32.34,ENE,72,8.0,13.0,94,0.00,,,0.00,weatherlink.com 1.10,2013-06-04 07:27:00,
2013-06-04 01:42:00,39.2,38.0,32.34,ENE,69,7.0,14.0,95,0.00,,,0.00,weatherlink.com 1.10,2013-06-04 07:42:00,
2013-06-04 01:57:00,38.8,38.0,32.34,ENE,59,8.0,13.0,95,0.00,,,0.00,weatherlink.com 1.10,2013-06-04 07:57:00,
2013-06-04 02:12:00,38.4,37.0,32.34,NE,37,7.0,13.0,95,0.00,,,0.00,weatherlink.com 1.10,2013-06-04 08:12:00,
2013-06-04 02:27:00,38.3,37.0,32.35,NE,41,8.0,14.0,94,0.00,,,0.00,weatherlink.com 1.10,2013-06-04 08:27:00,
2013-06-04 02:42:00,38.2,37.0,32.35,NNE,32,3.0,12.0,94,0.00,,,0.00,weatherlink.com 1.10,2013-06-04 08:42:00,
2013-06-04 02:57:00,38.4,36.0,32.35,ENE,59,11.0,14.0,92,0.00,,,0.00,weatherlink.com 1.10,2013-06-04 08:57:00,
2013-06-04 03:12:00,38.3,36.0,32.35,ENE,69,5.0,15.0,92,0.00,,,0.00,weatherlink.com 1.10,2013-06-04 09:12:00,
2013-06-04 03:27:00,38.2,36.0,32.36,ENE,77,7.0,13.0,91,0.00,,,0.00,weatherlink.com 1.10,2013-06-04 09:27:00,
2013-06-04 03:42:00,38.3,36.0,32.36,ENE,70,8.0,15.0,90,0.00,,,0.00,weatherlink.com 1.10,2013-06-04 09:42:00,
2013-06-04 03:57:00,38.1,36.0,32.37,East,90,8.0,18.0,90,0.00,,,0.00,weatherlink.com 1.10,2013-06-04 09:57:00,
2013-06-04 04:12:00,37.9,36.0,32.37,ENE,74,14.0,15.0,91,0.00,,,0.00,weatherlink.com 1.10,2013-06-04 10:12:00,
2013-06-04 04:27:00,38.0,35.0,32.37,ENE,72,9.0,15.0,89,0.00,,,0.00,weatherlink.com 1.10,2013-06-04 10:27:00,
2013-06-04 04:42:00,37.9,35.0,32.37,ENE,71,10.0,16.0,88,0.00,,,0.00,weatherlink.com 1.10,2013-06-04 10:42:00,
2013-06-04 04:57:00,38.0,35.0,32.38,ENE,71,5.0,18.0,87,0.00,,,0.00,weatherlink.com 1.10,2013-06-04 10:57:00,
2013-06-04 05:12:00,37.9,34.0,32.38,NE,55,6.0,16.0,87,0.00,,,0.00,weatherlink.com 1.10,2013-06-04 11:12:00,
2013-06-04 05:27:00,38.2,34.0,32.38,East,81,9.0,16.0,86,0.00,,,0.00,weatherlink.com 1.10,2013-06-04 11:27:00,
2013-06-04 05:42:00,38.2,34.0,32.38,ESE,103,7.0,14.0,85,0.00,,,0.00,weatherlink.com 1.10,2013-06-04 11:42:00,
2013-06-04 05:57:00,37.9,34.0,32.39,ENE,66,4.0,15.0,87,0.00,,,0.00,weatherlink.com 1.10,2013-06-04 11:57:00,
2013-06-04 06:12:00,37.3,35.0,32.39,East,90,9.0,13.0,90,0.00,,,0.00,weatherlink.com 1.10,2013-06-04 12:12:00,
2013-06-04 06:27:00,37.8,35.0,32.39,ENE,78,5.0,11.0,88,0.00,,,0.00,weatherlink.com 1.10,2013-06-04 12:27:00,
2013-06-04 06:42:00,37.8,34.0,32.39,ENE,74,5.0,13.0,86,0.00,,,0.00,weatherlink.com 1.10,2013-06-04 12:42:00,
2013-06-04 06:57:00,37.9,34.0,32.40,NE,47,3.0,9.0,85,0.00,,,0.00,weatherlink.com 1.10,2013-06-04 12:57:00,
2013-06-04 07:12:00,37.6,34.0,32.41,ENE,78,5.0,13.0,87,0.00,,,0.00,weatherlink.com 1.10,2013-06-04 13:12:00,
2013-06-04 07:27:00,37.2,34.0,32.41,ENE,71,15.0,15.0,88,0.00,,,0.00,weatherlink.com 1.10,2013-06-04 13:27:00,
2013-06-04 07:42:00,37.2,34.0,32.41,ENE,78,10.0,19.0,88,0.00,,,0.00,weatherlink.com 1.10,2013-06-04 13:42:00,
2013-06-04 07:57:00,37.5,34.0,32.42,NE,47,7.0,16.0,88,0.00,,,0.00,weatherlink.com 1.10,2013-06-04 13:57:00,
2013-06-04 08:13:00,37.5,35.0,32.43,ESE,119,9.0,15.0,89,0.00,,,0.00,weatherlink.com 1.10,2013-06-04 14:13:00,
2013-06-04 08:28:00,38.3,35.0,32.43,ENE,70,5.0,14.0,87,0.00,,,0.00,weatherlink.com 1.10,2013-06-04 14:28:00,
2013-06-04 08:42:00,40.6,37.0,32.43,East,80,7.0,11.0,85,0.00,,,0.00,weatherlink.com 1.10,2013-06-04 14:42:00,
2013-06-04 08:57:00,40.4,35.0,32.44,NE,44,6.0,13.0,82,0.00,,,0.00,weatherlink.com 1.10,2013-06-04 14:57:00,
2013-06-04 09:12:00,40.1,34.0,32.44,ENE,59,9.0,16.0,79,0.00,,,0.00,weatherlink.com 1.10,2013-06-04 15:12:00,
2013-06-04 09:27:00,41.3,34.0,32.44,NE,44,4.0,17.0,76,0.00,,,0.00,weatherlink.com 1.10,2013-06-04 15:27:00,
2013-06-04 09:42:00,43.3,36.0,32.44,ENE,63,8.0,13.0,74,0.00,,,0.00,weatherlink.com 1.10,2013-06-04 15:42:00,
2013-06-04 09:57:00,43.8,36.0,32.44,NNE,32,7.0,12.0,74,0.00,,,0.00,weatherlink.com 1.10,2013-06-04 15:57:00,
2013-06-04 10:12:00,44.5,37.0,32.44,ENE,65,5.0,9.0,75,0.00,,,0.00,weatherlink.com 1.10,2013-06-04 16:12:00,
2013-06-04 10:27:00,45.1,36.0,32.44,NNE,16,2.0,9.0,71,0.00,,,0.00,weatherlink.com 1.10,2013-06-04 16:27:00,
2013-06-04 10:42:00,45.9,36.0,32.43,NNE,28,6.0,9.0,69,0.00,,,0.00,weatherlink.com 1.10,2013-06-04 16:42:00,
2013-06-04 10:57:00,46.8,37.0,32.43,NE,53,4.0,7.0,68,0.00,,,0.00,weatherlink.com 1.10,2013-06-04 16:57:00,
2013-06-04 11:12:00,44.7,35.0,32.43,NNE,30,4.0,9.0,69,0.00,,,0.00,weatherlink.com 1.10,2013-06-04 17:12:00,
2013-06-04 11:27:00,44.8,36.0,32.43,East,91,3.0,5.0,71,0.00,,,0.00,weatherlink.com 1.10,2013-06-04 17:27:00,
2013-06-04 11:42:00,44.9,36.0,32.43,ESE,106,5.0,7.0,70,0.00,,,0.00,weatherlink.com 1.10,2013-06-04 17:42:00,
2013-06-04 11:57:00,45.3,37.0,32.42,East,82,5.0,8.0,72,0.00,,,0.00,weatherlink.com 1.10,2013-06-04 17:57:00,
2013-06-04 12:12:00,45.8,35.0,32.42,SE,126,2.0,9.0,67,0.00,,,0.00,weatherlink.com 1.10,2013-06-04 18:12:00,
2013-06-04 12:27:00,45.6,37.0,32.42,ESE,113,3.0,6.0,72,0.00,,,0.00,weatherlink.com 1.10,2013-06-04 18:27:00,
2013-06-04 12:42:00,46.6,37.0,32.42,SE,127,4.0,7.0,69,0.00,,,0.00,weatherlink.com 1.10,2013-06-04 18:42:00,
2013-06-04 12:57:00,46.3,37.0,32.42,SSE,168,2.0,7.0,70,0.00,,,0.00,weatherlink.com 1.10,2013-06-04 18:57:00,
2013-06-04 13:12:00,47.5,39.0,32.42,ENE,62,2.0,4.0,72,0.00,,,0.00,weatherlink.com 1.10,2013-06-04 19:12:00,
2013-06-04 13:27:00,48.8,39.0,32.41,East,94,2.0,7.0,69,0.00,,,0.00,weatherlink.com 1.10,2013-06-04 19:27:00,
2013-06-04 13:42:00,47.9,37.0,32.41,ENE,72,4.0,5.0,67,0.00,,,0.00,weatherlink.com 1.10,2013-06-04 19:42:00,
2013-06-04 13:57:00,48.2,38.0,32.40,NW,316,1.0,5.0,67,0.00,,,0.00,weatherlink.com 1.10,2013-06-04 19:57:00,
2013-06-04 14:12:00,48.2,36.0,32.40,East,82,1.0,6.0,63,0.00,,,0.00,weatherlink.com 1.10,2013-06-04 20:12:00,
2013-06-04 14:27:00,48.6,36.0,32.40,SW,227,2.0,4.0,62,0.00,,,0.00,weatherlink.com 1.10,2013-06-04 20:27:00,
2013-06-04 14:42:00,50.1,38.0,32.39,East,86,3.0,6.0,64,0.00,,,0.00,weatherlink.com 1.10,2013-06-04 20:42:00,
2013-06-04 14:57:00,49.9,37.0,32.39,NW,323,5.0,6.0,62,0.00,,,0.00,weatherlink.com 1.10,2013-06-04 20:57:00,
2013-06-04 15:12:00,49.2,36.0,32.39,NE,39,4.0,5.0,61,0.00,,,0.00,weatherlink.com 1.10,2013-06-04 21:12:00,
2013-06-04 15:28:00,51.8,38.0,32.39,NNW,348,5.0,8.0,59,0.00,,,0.00,weatherlink.com 1.10,2013-06-04 21:28:00,
2013-06-04 15:43:00,53.0,36.0,32.38,ENE,74,4.0,8.0,52,0.00,,,0.00,weatherlink.com 1.10,2013-06-04 21:43:00,
2013-06-04 15:58:00,53.4,38.0,32.38,NNW,333,4.0,8.0,57,0.00,,,0.00,weatherlink.com 1.10,2013-06-04 21:58:00,
2013-06-04 16:13:00,53.4,38.0,32.37,NW,312,3.0,10.0,57,0.00,,,0.00,weatherlink.com 1.10,2013-06-04 22:13:00,
2013-06-04 16:28:00,53.4,39.0,32.37,NW,316,5.0,7.0,58,0.00,,,0.00,weatherlink.com 1.10,2013-06-04 22:28:00,
2013-06-04 16:43:00,54.2,39.0,32.36,North,9,3.0,9.0,57,0.00,,,0.00,weatherlink.com 1.10,2013-06-04 22:43:00,
2013-06-04 16:58:00,54.2,38.0,32.36,NNW,331,4.0,12.0,54,0.00,,,0.00,weatherlink.com 1.10,2013-06-04 22:58:00,
2013-06-04 17:13:00,54.4,36.0,32.36,NNE,16,7.0,8.0,51,0.00,,,0.00,weatherlink.com 1.10,2013-06-04 23:13:00,
2013-06-04 17:28:00,54.9,34.0,32.35,NNE,20,3.0,9.0,45,0.00,,,0.00,weatherlink.com 1.10,2013-06-04 23:28:00,
2013-06-04 17:43:00,54.3,33.0,32.34,NE,44,3.0,8.0,45,0.00,,,0.00,weatherlink.com 1.10,2013-06-04 23:43:00,
2013-06-04 17:58:00,54.4,34.0,32.34,North,9,2.0,8.0,47,0.00,,,0.00,weatherlink.com 1.10,2013-06-04 23:58:00,
2013-06-04 18:13:00,54.9,33.0,32.34,NW,323,6.0,7.0,43,0.00,,,0.00,weatherlink.com 1.10,2013-06-05 00:13:00,
2013-06-04 18:28:00,54.1,32.0,32.34,NNW,333,3.0,8.0,44,0.00,,,0.00,weatherlink.com 1.10,2013-06-05 00:28:00,
2013-06-04 18:43:00,54.8,32.0,32.34,North,5,5.0,9.0,42,0.00,,,0.00,weatherlink.com 1.10,2013-06-05 00:43:00,
2013-06-04 18:58:00,55.1,33.0,32.33,NW,312,4.0,8.0,44,0.00,,,0.00,weatherlink.com 1.10,2013-06-05 00:58:00,
2013-06-04 19:13:00,54.4,32.0,32.33,NNW,329,6.0,9.0,42,0.00,,,0.00,weatherlink.com 1.10,2013-06-05 01:13:00,
2013-06-04 19:28:00,53.7,30.0,32.33,NNW,333,4.0,7.0,41,0.00,,,0.00,weatherlink.com 1.10,2013-06-05 01:28:00,
2013-06-04 19:43:00,53.9,33.0,32.33,North,350,6.0,8.0,46,0.00,,,0.00,weatherlink.com 1.10,2013-06-05 01:43:00,
2013-06-04 19:58:00,53.8,34.0,32.33,NW,319,4.0,8.0,47,0.00,,,0.00,weatherlink.com 1.10,2013-06-05 01:58:00,
2013-06-04 20:13:00,53.9,35.0,32.32,NNE,22,4.0,9.0,49,0.00,,,0.00,weatherlink.com 1.10,2013-06-05 02:13:00,
2013-06-04 20:28:00,53.7,34.0,32.33,NNW,327,5.0,8.0,48,0.00,,,0.00,weatherlink.com 1.10,2013-06-05 02:28:00,
2013-06-04 20:43:00,53.2,33.0,32.33,North,350,5.0,8.0,47,0.00,,,0.00,weatherlink.com 1.10,2013-06-05 02:43:00,
2013-06-04 20:58:00,52.5,33.0,32.33,NNW,334,5.0,8.0,47,0.00,,,0.00,weatherlink.com 1.10,2013-06-05 02:58:00,
2013-06-04 21:13:00,51.8,32.0,32.33,NNW,337,5.0,8.0,47,0.00,,,0.00,weatherlink.com 1.10,2013-06-05 03:13:00,
2013-06-04 21:28:00,51.1,31.0,32.32,North,349,6.0,8.0,46,0.00,,,0.00,weatherlink.com 1.10,2013-06-05 03:28:00,
2013-06-04 21:43:00,50.6,32.0,32.33,NNW,343,7.0,8.0,49,0.00,,,0.00,weatherlink.com 1.10,2013-06-05 03:43:00,
2013-06-04 21:58:00,50.2,34.0,32.34,North,355,6.0,8.0,54,0.00,,,0.00,weatherlink.com 1.10,2013-06-05 03:58:00,
2013-06-04 22:13:00,50.0,34.0,32.34,North,350,6.0,8.0,54,0.00,,,0.00,weatherlink.com 1.10,2013-06-05 04:13:00,
2013-06-04 22:28:00,50.1,33.0,32.34,North,11,4.0,8.0,53,0.00,,,0.00,weatherlink.com 1.10,2013-06-05 04:28:00,
2013-06-04 22:43:00,50.0,33.0,32.34,North,360,5.0,7.0,52,0.00,,,0.00,weatherlink.com 1.10,2013-06-05 04:43:00,
2013-06-04 22:58:00,50.1,32.0,32.33,North,5,3.0,5.0,51,0.00,,,0.00,weatherlink.com 1.10,2013-06-05 04:58:00,
2013-06-04 23:13:00,50.4,31.0,32.33,North,11,4.0,6.0,47,0.00,,,0.00,weatherlink.com 1.10,2013-06-05 05:13:00,
2013-06-04 23:28:00,50.5,31.0,32.34,NNE,25,4.0,5.0,48,0.00,,,0.00,weatherlink.com 1.10,2013-06-05 05:28:00,
2013-06-04 23:43:00,50.4,31.0,32.34,NNE,25,4.0,5.0,47,0.00,,,0.00,weatherlink.com 1.10,2013-06-05 05:43:00,
2013-06-04 23:58:00,50.7,31.0,32.34,NNE,28,4.0,5.0,48,0.00,,,0.00,weatherlink.com 1.10,2013-06-05 05:58:00,